TimeEDT,TemperatureF,Dew PointF,Humidity,Sea Level PressureIn,VisibilityMPH,Wind Direction,Wind SpeedMPH,Gust SpeedMPH,PrecipitationIn,Events,Conditions,WindDirDegrees,DateUTC
12:54 AM,37.0,30.0,76,30.15,10.0,South,3.5,-,N/A,,Partly Cloudy,170,2012-10-09 04:54:00
1:54 AM,37.0,30.0,76,30.14,10.0,South,5.8,-,N/A,,Partly Cloudy,170,2012-10-09 05:54:00
2:54 AM,36.0,30.0,79,30.14,10.0,South,5.8,-,N/A,,Partly Cloudy,180,2012-10-09 06:54:00
3:54 AM,35.1,30.9,85,30.12,10.0,South,4.6,-,N/A,,Scattered Clouds,190,2012-10-09 07:54:00
4:54 AM,36.0,30.9,82,30.12,10.0,South,6.9,-,N/A,,Mostly Cloudy,180,2012-10-09 08:54:00
5:54 AM,37.0,30.9,79,30.12,10.0,South,8.1,-,N/A,,Scattered Clouds,180,2012-10-09 09:54:00
6:54 AM,37.0,32.0,82,30.13,10.0,South,8.1,-,N/A,,Partly Cloudy,180,2012-10-09 10:54:00
7:54 AM,37.0,33.1,86,30.13,10.0,SSW,6.9,-,N/A,,Scattered Clouds,200,2012-10-09 11:54:00
8:54 AM,42.1,36.0,79,30.13,10.0,SSW,10.4,-,N/A,,Scattered Clouds,200,2012-10-09 12:54:00
9:54 AM,48.0,37.0,66,30.12,10.0,SSW,15.0,-,N/A,,Scattered Clouds,210,2012-10-09 13:54:00
10:54 AM,53.1,37.9,57,30.11,10.0,SSW,13.8,-,N/A,,Scattered Clouds,210,2012-10-09 14:54:00
11:54 AM,57.0,37.9,49,30.09,10.0,SSW,19.6,-,N/A,,Scattered Clouds,200,2012-10-09 15:54:00
12:54 PM,59.0,37.0,44,30.07,10.0,SW,17.3,26.5,N/A,,Scattered Clouds,230,2012-10-09 16:54:00
1:54 PM,60.1,36.0,41,30.03,10.0,SW,18.4,25.3,N/A,,Scattered Clouds,220,2012-10-09 17:54:00
2:54 PM,61.0,36.0,39,30.00,10.0,SSW,19.6,26.5,N/A,,Mostly Cloudy,210,2012-10-09 18:54:00
3:54 PM,62.1,36.0,38,29.97,10.0,SW,18.4,26.5,N/A,,Mostly Cloudy,220,2012-10-09 19:54:00
4:54 PM,62.1,36.0,38,29.95,10.0,SSW,15.0,24.2,N/A,,Mostly Cloudy,200,2012-10-09 20:54:00
5:54 PM,60.1,37.9,44,29.94,10.0,SSW,12.7,-,N/A,,Mostly Cloudy,200,2012-10-09 21:54:00
6:54 PM,57.0,37.0,47,29.94,10.0,SSW,12.7,-,N/A,,Mostly Cloudy,210,2012-10-09 22:54:00
7:54 PM,52.0,37.9,59,29.95,10.0,SSW,8.1,-,N/A,,Mostly Cloudy,200,2012-10-09 23:54:00
8:54 PM,48.0,37.9,68,29.94,10.0,South,6.9,-,N/A,,Mostly Cloudy,170,2012-10-10 00:54:00
9:54 PM,46.0,39.0,76,29.93,10.0,SSW,4.6,-,N/A,,Overcast,210,2012-10-10 01:54:00
10:54 PM,46.9,39.9,77,29.93,10.0,South,6.9,-,N/A,,Overcast,180,2012-10-10 02:54:00
11:54 PM,46.9,39.9,77,29.91,10.0,South,6.9,-,N/A,,Overcast,190,2012-10-10 03:54:00